weather.gov     
National Weather Service

Regional Weather Roundup
NWS Homepage
This page is being discontinued on March 12, 2014.
The same data is available at this site. Please update your bookmarks.
Thank you, and we apologize for the inconvenience.
Please send an email to SR-SRH.Webmaster@noaa.gov with any concerns.


Current Version
Previous Version:    01  02  03  04  05  06  07  08  09  
[Printable]
521
ASUS42 KTBW 231310
RWRFL
FLORIDA REGIONAL WEATHER ROUNDUP
NATIONAL WEATHER SERVICE TAMPA BAY RUSKIN FL
800 AM EST SUN NOV 23 2014

NOTE: "FAIR" INDICATES FEW OR NO CLOUDS BELOW 12,000 FEET WITH NO
SIGNIFICANT WEATHER AND/OR OBSTRUCTIONS TO VISIBILITY.


FLZ001>010-012>015-112-114-115-231400-
PANHANDLE FLORIDA

CITY           SKY/WX    TMP DP  RH WIND       PRES   REMARKS
PENSACOLA      LGT RAIN  67  67 100 SE15      29.80F FOG
PENSACOLA NAS  LGT RAIN  70  69  97 SE12      29.80R FOG
MILTON NAS     CLOUDY    69  68  96 SE12      29.81F
CRESTVIEW      CLOUDY    66  66 100 E9        29.85F FOG
DUKE FIELD     CLOUDY    69  68  96 SE14      29.83F
VALPARAISO     CLOUDY    67  67  97 SE13      29.84S FOG
MARY ESTHER    CLOUDY    68  65  89 E15       29.81F
TRI COUNTY     LGT RAIN  63  63 100 E5        29.89F FOG
PANAMA CITY    CLOUDY    72  69  90 SE12G22   29.87S
TYNDALL AFB    CLOUDY    72  70  95 SE18G28   29.88S
APALACHICOLA   CLOUDY    71  67  87 SE14G24   29.91R FOG

STATION/POSITION SKY/WX   TEMP    WIND        PRES    WAVE   SWELL
                          AIR SEA DIR/SP/G            HT/PER HT/PER
                          (F)     (DEG/KT/KT) (MB)    (FT/S) (FT/S)
30.1N   87.6W              72 67  150/ 17/ 19 1007.4F   7/ 8   5/ 8
29.2N   88.2W              75 73  170/ 19/ 23 1008.2    7/ 8   5/ 8
28.7N   86.0W              78 76  180/ 21/ 27 1011.2   11/ 8
PANAMA CITY BEAC           68 65  130/ 21/ 23 1010.8F
CAPE SAN BLAS    NOT AVBL
TOWER C                    70     150/ 19/ 20 1012.4R
28.5N   84.5W              72 70  160/ 21/ 27 1012.1R   8/ 8   2/12

$$
FLZ011-016>038-118-127-128-134-139-239-231400-
NORTH FLORIDA

CITY           SKY/WX    TMP DP  RH WIND       PRES   REMARKS
MARIANNA       LGT RAIN  64  64 100 E5        29.90S FOG
TALLAHASSEE    CLOUDY    70  67  90 SE15G22   29.93S FOG
PERRY          CLOUDY    69  68  97 SE6       29.96R
CROSS CITY       N/A     71  70  96 S7        29.96R
LAKE CITY      CLOUDY    68  68 100 SE9       29.98F
GAINESVILLE    CLOUDY    70  69  97 SE7       29.99R
MAYPORT NAS    CLOUDY    69  68  96 CALM      30.01S FOG
JACKSONVILLE   CLOUDY    69  69 100 E5        30.00F
JAX NAS        CLOUDY    70  67  90 CALM      30.01S FOG
JAX CRAIG      CLOUDY    70  68  93 SE3       30.01S
JAX CECIL      LGT RAIN  68  68 100 CALM      30.00S
FERNANDINA BEA CLOUDY    73  72  94 SE5       30.00S
ST AUGUSTINE   CLOUDY    72  70  94 S7        30.01R FOG

STATION/POSITION SKY/WX   TEMP    WIND        PRES    WAVE   SWELL
                          AIR SEA DIR/SP/G            HT/PER HT/PER
                          (F)     (DEG/KT/KT) (MB)    (FT/S) (FT/S)
SHELL POINT                62     120/ 12/ 18   N/A
KEATON BEACH               71     140/ 18/ 21 1014.6R
CEDAR KEY                  65     150/ 17/ 18 1014.2F
FERNANDINA                 68 59  160/  4/  9 1015.7F
30.7N   81.3W                 62                N/A     7/ 8   2/11
MAYPORT                    69 63   CALM  /  2   N/A
31.4N   80.9W              67 64  100/ 17/ 19 1015.7F   7/ 8
ST AUGUSTINE               67     190/  7/  8 1016.7R

$$
FLZ040-043>046-052-053-057-058-063-144-231400-
INTERIOR CENTRAL FLORIDA

CITY           SKY/WX    TMP DP  RH WIND       PRES   REMARKS
OCALA          PTSUNNY   72  68  88 S9G17     29.99F FOG
THE VILLAGES     N/A     72  72 100 SE10G18   29.90F
LEESBURG       CLOUDY    70  69  97 S7        30.01S
SANFORD        CLOUDY    72  70  93 S8        30.02S
ORLANDO EXEC   CLOUDY    73  72  96 SE10      30.02R
ORLANDO INTL   PTSUNNY   73  72  96 SE9       30.02S
KISSIMMEE      LGT RAIN  72  70  94 SE6       30.02
WINTER HAVEN   CLOUDY    73  71  93 SE10      30.03R
LAKELAND       CLOUDY    72  72 100 SE10      30.02R
BARTOW         CLOUDY    72 N/A N/A SE8       30.03S FOG
OKEECHOBEE     SUNNY    N/A N/A N/A SE6       30.02R

$$
FLZ041-047-054-059-064-141-147-231400-
EAST CENTRAL FLORIDA

CITY           SKY/WX    TMP DP  RH WIND       PRES   REMARKS
ORMOND BEACH   PTSUNNY   72  70  94 S7        30.00F FOG
DAYTONA BEACH  CLOUDY    73  71  93 S10G17    30.01S
DELAND         CLOUDY    72  72 100 SE10      30.02F
NEW SMYRNA BEA PTSUNNY   73  72  94 S12G18    30.03S
JFK SPACE CTR  CLOUDY    72  64  78 E15G24    30.16S
TITUSVILLE     CLOUDY    72  72 100 SE13      30.04
CAPE CANAVERAL CLOUDY    72  64  78 E13G22    30.16R
PATRICK AFB    DRIZZLE   73  72  95 S13       30.03R
MELBOURNE      PTSUNNY   75  72  90 SE13      30.03R FOG
VERO BEACH     PTSUNNY   72  68  87 SE9       30.04R
FT PIERCE      PTSUNNY   75  73  93 SE8       30.03R
STUART         PTSUNNY   75  73  94 SE8       30.04S

STATION/POSITION SKY/WX   TEMP    WIND        PRES    WAVE   SWELL
                          AIR SEA DIR/SP/G            HT/PER HT/PER
                          (F)     (DEG/KT/KT) (MB)    (FT/S) (FT/S)
28.5N   80.2W              77 76  150/ 23/ 29 1016.4R
28.9N   78.5W              76 78  120/ 25/ 29 1017.5R  10/ 7   5/ 8
TRIDENT PIER               72 68  140/  8/ 13 1016.3R
28.4N   80.5W                 68                N/A     6/10   2/11
27.6N   80.2W                 71                N/A     7/ 9   2/11

$$
FLZ050-056-061-142-242-148-248-149-249-151-251-155-255-
160-260-231400-
WEST CENTRAL FLORIDA

CITY           SKY/WX    TMP DP  RH WIND       PRES   REMARKS
CRYSTAL RIVER  CLOUDY    73  68  83 SE10      29.97F
INVERNESS      CLOUDY    72  70  94 S12       29.99F
BROOKSVILLE    CLOUDY    73  70  90 SE12      29.99S
ZEPHYRHILLS    CLOUDY    72  70  94 SE10      30.02R
CLEARWATER     PTSUNNY   73  70  90 SE13      29.99S
TAMPA INTL     CLOUDY    74  69  85 S9        30.00R
TAMPA EXEC     PTSUNNY   77  70  78 S9        30.01R
PLANT CITY     CLOUDY    75 N/A N/A S8        30.02S
MACDILL AFB    PTSUNNY   71  71 100 S10       29.99S
PETER O KNIGHT CLOUDY    73  72  94 S9        30.00S
ST PETERSBURG  CLOUDY    70  67  90 S9        29.98R
SARASOTA       PTSUNNY   74  71  91 SE15      29.98R
VENICE         FAIR      73  72  94 SE12      30.00R

STATION/POSITION SKY/WX   TEMP    WIND        PRES    WAVE   SWELL
                          AIR SEA DIR/SP/G            HT/PER HT/PER
                          (F)     (DEG/KT/KT) (MB)    (FT/S) (FT/S)
CEDAR KEY                  65     150/ 17/ 18 1014.2F
28.5N   84.5W              72 70  160/ 21/ 27 1012.1R   8/ 8   2/12
27.3N   84.3W                 78                N/A     6/ 7
CLEARWATER BEACH           73 63  140/ 11/ 16 1014.7F
MIDDLE TAMPA BAY           72     170/ 12/ 15   N/A
VENICE                     75 67  130/ 12/ 16 1015.3R

$$
FLZ066-069-070-075>078-162-262-165-265-231400-
SOUTHWEST FLORIDA AND KEYS

CITY           SKY/WX    TMP DP  RH WIND       PRES   REMARKS
PUNTA GORDA    PTSUNNY   74  71  91 SE9       30.01S
FT MYERS       MOSUNNY   73  72  96 SE9       29.98F
SOUTHWEST INTL MOSUNNY   72  71  97 SE13      29.99F
NAPLES         MOSUNNY   74  72  93 SE12      30.00R
MARCO ISLAND   PTSUNNY   73  72  94 SE9       30.00S
MARATHON       MOSUNNY   78  75  90 SE10G20   30.01R
KEY WEST NAS   MOSUNNY   77  73  87 SE14      30.00R
KEY WEST INTL  MOSUNNY   79  79 100 SE14      30.00R

STATION/POSITION SKY/WX   TEMP    WIND        PRES    WAVE   SWELL
                          AIR SEA DIR/SP/G            HT/PER HT/PER
                          (F)     (DEG/KT/KT) (MB)    (FT/S) (FT/S)
VENICE                     75 67  130/ 12/ 16 1015.3R
NAPLES                     74 73  140/  7/ 15 1016.2F
26.0N   85.6W              79 80  160/ 14/ 21 1012.3R   5/ 7
DRY TORTUGAS               78     140/ 12/ 13 1014.8R
NW FL BAY                  75     100/  7/  9 1016.2R
SAND KEY                   79     130/ 17/ 20 1015.7R
SOMBRERO KEY               80     130/ 19/ 19 1016.8R
LONG KEY                   78 74  140/ 12/ 14 1016.7R
MOLASSES REEF              79 78  140/ 19/ 22 1016.6R

$$
FLZ067-068-071>074-168-172>174-231400-
SOUTHEAST FLORIDA

CITY           SKY/WX    TMP DP  RH WIND       PRES   REMARKS
W PALM BEACH   MOSUNNY   79  73  82 SE17      30.03R
FT LAUDER-EXEC MOSUNNY   78  72  81 SE12      30.03R
FT LAUDERDALE  PTSUNNY   79  73  82 SE15      30.02S
POMPANO BEACH  MOSUNNY   79  72  79 SE12G24   30.03S
PEMBROKE PINES MOSUNNY   78  72  81 SE13      30.04S
OPA LOCKA      MOSUNNY   78  72  81 SE13      30.03S
MIAMI          MOSUNNY   78  72  81 SE10      30.03R
WEST KENDALL   SUNNY     78  72  81 SE9       30.03R
HOMESTEAD      SUNNY     78  72  81 SE9       30.03R

STATION/POSITION SKY/WX   TEMP    WIND        PRES    WAVE   SWELL
                          AIR SEA DIR/SP/G            HT/PER HT/PER
                          (F)     (DEG/KT/KT) (MB)    (FT/S) (FT/S)
PORT EVERGLADES            79     130/ 14/ 18 1016.9
VIRGINIA KEY               78 74  140/ 12/ 16 1017.4R




U.S. Dept. of Commerce
NOAA National Weather Service
1325 East West Highway
Silver Spring, MD 20910
E-mail: w-nws.webmaster@noaa.gov
Page last modified: May 16, 2007
NATIONAL WEATHER SERVICE: for Safety, for Work, for Fun - FOR LIFE